Location: Beuerbach
(48.1459°N, 10.9174°E)
Time: 00:58:34
(UTC+00:00)

Meteor 1-21 - Pass Details

Date: 12 August 2024
Orbit: 845 x 885 km, 81.2° (Epoch: 09 September)

Event Time Altitude Azimuth Distance (km) Brightness Sun altitude
Rises 00:14:45 0° 348° (NNW) 3,418 8.3 -25.9°
Reaches altitude 10° 00:17:11 10° 348° (NNW) 2,480 7.4 -25.8°
Maximum altitude 00:22:49 89° 257° (WSW) 856 4.1 -25.5°
Enters shadow 00:23:33 69° 172° (S) 910 4.1 -25.5°
